Date String (YYYY-MM-DD hh:mm:ss) UTC,Instrument flags,absolute air pressure of the measurement (hPa),sample flow rate (lpm),inlet stack bypass flow (lpm),air temperature of the measurement (°C),ambient temperature measured by the external sensor (°C),aerosol sample conditioner tube jacket temperature (°C),OPC LED temperature (°C),internal box temperature (°C),relative humidity of the measurement (%),span deviation,mass concentration of particles derived from Lorenz-Mie calculation of OPC scattering (μg/m³),mass concentration of particles derived from Lorenz-Mie calculation of OPC scattering (μg/m³),mass concentration of particles derived from Lorenz-Mie calculation of OPC scattering (μg/m³)
DateTimeUTC,F1_M11,P_M11,Q1_M11,Q2_M11,T1_M11,T2_M11,T3_M11,T4_M11,T5_M11,U1_M11,ZSPAN_M11,X2_M11,X0_M11,X1_M11
2024-04-29 07:00:00,SystemResetWarning,0826.4,4.99,000.00,025.6,024.8,000.0,034.2,027.4,018.0,0000.0,0001.45,0003.92,0000.92
2024-04-29 07:01:00,SystemResetWarning,0826.4,4.99,000.00,025.6,024.8,000.0,034.2,027.4,017.7,0000.0,0001.45,0004.03,0000.93
2024-04-29 07:02:00,SystemResetWarning,0826.4,5.02,000.00,025.6,024.8,000.0,034.2,027.4,017.9,0000.0,0001.42,0004.02,0000.92
2024-04-29 07:03:00,SystemResetWarning,0826.4,5.01,000.00,025.6,024.8,000.0,034.2,027.4,017.5,0000.0,0001.42,0004.14,0000.92
2024-04-29 07:04:00,SystemResetWarning,0826.4,4.99,000.00,025.6,024.8,000.0,034.1,027.4,017.7,0000.0,0001.39,0003.89,0000.92
2024-04-29 07:05:00,SystemResetWarning,0826.4,4.99,000.00,025.6,024.8,000.0,034.1,027.4,017.4,0000.0,0001.40,0003.81,0000.92
2024-04-29 07:06:00,SystemResetWarning,0826.4,5.00,000.00,025.6,024.8,000.0,034.1,027.4,017.1,0000.0,0001.39,0004.23,0000.90
2024-04-29 07:07:00,SystemResetWarning,0826.4,5.00,000.00,025.6,024.8,000.0,034.1,027.4,017.0,0000.0,0001.37,0005.38,0000.88
2024-04-29 07:08:00,SystemResetWarning,0826.3,5.00,000.00,025.6,024.8,000.0,034.1,027.4,017.1,0000.0,0001.44,0005.53,0000.88
2024-04-29 07:09:00,SystemResetWarning,0826.3,5.00,000.00,025.6,024.8,000.0,034.1,027.4,017.7,0000.0,0001.47,0005.65,0000.87
2024-04-29 07:10:00,SystemResetWarning,0826.2,5.00,000.00,025.6,024.8,000.0,034.1,027.4,017.6,0000.0,0001.46,0004.91,0000.87
2024-04-29 07:11:00,SystemResetWarning,0826.2,5.00,000.00,025.6,024.8,000.0,034.1,027.4,017.2,0000.0,0001.44,0004.61,0000.85
2024-04-29 07:12:00,SystemResetWarning,0826.2,5.00,000.00,025.6,024.8,000.0,034.1,027.4,017.0,0000.0,0001.49,0004.67,0000.85
2024-04-29 07:13:00,SystemResetWarning,0826.2,4.99,000.00,025.6,024.8,000.0,034.1,027.4,016.9,0000.0,0001.57,0004.87,0000.85
2024-04-29 07:14:00,SystemResetWarning,0826.2,5.00,000.00,025.6,024.8,000.0,034.1,027.4,016.7,0000.0,0001.60,0004.79,0000.85
2024-04-29 07:15:00,SystemResetWarning,0826.2,5.00,000.00,025.6,024.8,000.0,034.1,027.4,016.6,0000.0,0001.57,0004.64,0000.86
2024-04-29 07:16:00,SystemResetWarning,0826.2,5.01,000.00,025.6,024.8,000.0,034.1,027.4,016.5,0000.0,0001.57,0004.60,0000.84
2024-04-29 07:17:00,SystemResetWarning,0826.2,5.00,000.00,025.6,024.8,000.0,034.1,027.4,016.5,0000.0,0001.58,0004.47,0000.84
2024-04-29 07:18:00,SystemResetWarning,0826.2,5.01,000.00,025.6,024.8,000.0,034.1,027.4,016.6,0000.0,0001.60,0003.14,0000.83
2024-04-29 07:19:00,SystemResetWarning,0826.2,5.00,000.00,025.6,024.8,000.0,034.1,027.4,016.6,0000.0,0001.54,0003.55,0000.83
2024-04-29 07:20:00,SystemResetWarning,0826.2,5.00,000.00,025.6,024.8,000.0,034.1,027.4,016.8,0000.0,0001.55,0004.05,0000.82
2024-04-29 07:21:00,SystemResetWarning,0826.2,5.00,000.00,025.5,024.8,000.0,034.1,027.4,017.1,0000.0,0001.54,0004.23,0000.81
2024-04-29 07:22:00,SystemResetWarning,0826.2,4.99,000.00,025.5,024.8,000.0,034.1,027.4,017.4,0000.0,0001.58,0004.33,0000.81
2024-04-29 07:23:00,SystemResetWarning,0826.2,4.99,000.00,025.5,024.8,000.0,034.1,027.4,017.4,0000.0,0001.56,0004.22,0000.80
2024-04-29 07:24:00,SystemResetWarning,0826.2,4.99,000.00,025.5,024.8,000.0,034.1,027.4,017.1,0000.0,0001.45,0003.95,0000.79
2024-04-29 07:25:00,SystemResetWarning,0826.2,5.00,000.00,025.5,024.8,000.0,034.1,027.4,017.0,0000.0,0001.42,0003.84,0000.77
2024-04-29 07:26:00,SystemResetWarning,0826.1,5.00,000.00,025.5,024.8,000.0,034.1,027.4,016.9,0000.0,0001.40,0003.85,0000.74
2024-04-29 07:27:00,SystemResetWarning,0826.0,5.01,000.00,025.5,024.7,000.0,034.1,027.4,016.8,0000.0,0001.40,0003.95,0000.72
2024-04-29 07:28:00,SystemResetWarning,0826.0,5.00,000.00,025.5,024.7,000.0,034.1,027.3,016.8,0000.0,0001.39,0004.10,0000.72
2024-04-29 07:29:00,SystemResetWarning,0826.0,4.99,000.00,025.5,024.7,000.0,034.1,027.3,016.8,0000.0,0001.36,0004.01,0000.71
2024-04-29 07:30:00,SystemResetWarning,0826.0,5.00,000.00,025.5,024.7,000.0,034.1,027.3,016.6,0000.0,0001.31,0003.53,0000.69
2024-04-29 07:31:00,SystemResetWarning,0825.9,5.00,000.00,025.5,024.7,000.0,034.1,027.3,016.4,0000.0,0001.22,0002.72,0000.68
2024-04-29 07:32:00,SystemResetWarning,0825.9,5.00,000.00,025.5,024.7,000.0,034.1,027.3,016.3,0000.0,0001.23,0002.50,0000.68
2024-04-29 07:33:00,SystemResetWarning,0825.9,5.00,000.00,025.5,024.7,000.0,034.1,027.3,016.2,0000.0,0001.20,0002.43,0000.68
2024-04-29 07:34:00,SystemResetWarning,0825.9,5.01,000.00,025.5,024.7,000.0,034.1,027.3,016.2,0000.0,0001.18,0002.42,0000.67
2024-04-29 07:35:00,SystemResetWarning,0825.9,5.01,000.00,025.4,024.6,000.0,034.0,027.3,016.3,0000.0,0001.23,0002.89,0000.67
2024-04-29 07:36:00,SystemResetWarning,0825.9,5.01,000.00,025.4,024.6,000.0,034.0,027.3,016.4,0000.0,0001.29,0003.12,0000.68
2024-04-29 07:37:00,SystemResetWarning,0825.9,5.00,000.00,025.4,024.6,000.0,034.0,027.2,016.5,0000.0,0001.29,0003.12,0000.68
2024-04-29 07:38:00,SystemResetWarning,0825.9,5.00,000.00,025.4,024.6,000.0,034.0,027.2,016.6,0000.0,0001.28,0003.04,0000.70
2024-04-29 07:39:00,SystemResetWarning,0825.9,5.00,000.00,025.4,024.6,000.0,034.0,027.2,016.6,0000.0,0001.24,0002.78,0000.70
2024-04-29 07:40:00,SystemResetWarning,0825.9,5.00,000.00,025.4,024.6,000.0,034.0,027.2,016.4,0000.0,0001.26,0002.82,0000.69
2024-04-29 07:41:00,SystemResetWarning,0825.9,5.00,000.00,025.4,024.5,000.0,034.0,027.2,016.1,0000.0,0001.30,0002.92,0000.68
2024-04-29 07:42:00,SystemResetWarning,0825.9,4.99,000.00,025.4,024.5,000.0,034.0,027.2,015.9,0000.0,0001.32,0003.01,0000.70
2024-04-29 07:43:00,SystemResetWarning,0826.0,5.00,000.00,025.4,024.5,000.0,034.0,027.2,016.2,0000.0,0001.34,0003.08,0000.70
2024-04-29 07:44:00,SystemResetWarning,0826.0,5.00,000.00,025.3,024.5,000.0,034.0,027.2,016.2,0000.0,0001.36,0003.17,0000.70
2024-04-29 07:45:00,SystemResetWarning,0826.0,5.00,000.00,025.3,024.5,000.0,033.9,027.1,016.2,0000.0,0001.39,0003.42,0000.70
2024-04-29 07:46:00,SystemResetWarning,0826.0,5.01,000.00,025.3,024.5,000.0,033.9,027.1,016.3,0000.0,0001.34,0003.05,0000.70
2024-04-29 07:47:00,SystemResetWarning,0826.0,5.00,000.00,025.3,024.5,000.0,033.9,027.1,015.7,0000.0,0001.37,0003.30,0000.71
2024-04-29 07:48:00,SystemResetWarning,0826.0,5.01,000.00,025.3,024.5,000.0,033.9,027.1,015.8,0000.0,0001.48,0003.53,0000.72
2024-04-29 07:49:00,SystemResetWarning,0826.0,5.00,000.00,025.3,024.5,000.0,033.9,027.1,015.5,0000.0,0001.58,0003.78,0000.72
2024-04-29 07:50:00,SystemResetWarning,0826.0,5.00,000.00,025.3,024.5,000.0,033.9,027.1,015.6,0000.0,0001.59,0003.84,0000.72
2024-04-29 07:51:00,SystemResetWarning,0825.9,5.00,000.00,025.3,024.5,000.0,033.9,027.1,015.7,0000.0,0001.61,0003.94,0000.73
2024-04-29 07:52:00,SystemResetWarning,0825.9,5.00,000.00,025.3,024.5,000.0,033.9,027.1,016.2,0000.0,0001.63,0004.01,0000.74
2024-04-29 07:53:00,SystemResetWarning,0825.9,5.00,000.00,025.3,024.5,000.0,033.9,027.1,016.3,0000.0,0001.62,0003.94,0000.73
2024-04-29 07:54:00,SystemResetWarning,0825.9,5.00,000.00,025.3,024.5,000.0,033.9,027.1,016.3,0000.0,0001.59,0003.81,0000.73
2024-04-29 07:55:00,SystemResetWarning,0825.9,5.00,000.00,025.3,024.5,000.0,033.8,027.1,016.2,0000.0,0001.54,0003.69,0000.73
2024-04-29 07:56:00,SystemResetWarning,0825.9,4.99,000.00,025.2,024.4,000.0,033.8,027.1,016.1,0000.0,0001.46,0003.27,0000.72
2024-04-29 07:57:00,SystemResetWarning,0825.9,5.00,000.00,025.2,024.4,000.0,033.8,027.1,016.0,0000.0,0001.47,0003.34,0000.72
2024-04-29 07:58:00,SystemResetWarning,0825.9,5.00,000.00,025.2,024.5,000.0,033.8,027.1,016.1,0000.0,0001.46,0003.06,0000.72
2024-04-29 07:59:00,SystemResetWarning,0825.9,5.01,000.00,025.2,024.5,000.0,033.8,027.0,016.1,0000.0,0001.39,0002.92,0000.71
